Regional Weather Roundup
Issued by NWS

Home | Current Version | Previous Version | Text Only | Print | Product List | Glossary On
Versions: 1 2 3 4 5 6 7 8 9 10 11 12 13 14 15 16 17 18 19 20 21 22 23 24 25 26 27 28 29 30 31 32 33 34 35 36 37 38 39 40 41 42 43 44 45 46 47 48 49 50
000
ASUS44 KJAN 060710
RWRMS

MISSISSIPPI HOURLY WEATHER ROUNDUP
NATIONAL WEATHER SERVICE JACKSON MS
200 AM CDT FRI MAY 06 2016

NOTE: "FAIR: INDICATES FEW OR NO CLOUDS BELOW 12,000 FEET WITH NO
SIGNIFICANT WEATHER AND/OR OBSTRUCTIONS TO VISIBILITY.

MSZ001>002-007>008-010>013-018>021-025>028-034>036-060800-
NORTHWEST MISSISSIPPI

CITY           SKY/WX    TMP DP  RH WIND       PRES   REMARKS
BATESVILLE     FAIR      47  45  92 CALM      30.05S
CLEVELAND      FAIR      56  47  71 NE8       30.04R
GREENWOOD      CLEAR     51  44  77 CALM      30.03S
GREENVILLE     CLEAR     55  45  68 NE7       30.03S
OLIVE BRANCH   CLEAR     50  46  87 CALM      30.05S
OXFORD         FAIR      45  41  87 CALM      30.05S
TUNICA         SUNNY     52  43  71 CALM      30.06S
WINONA         FAIR      47  47  97 CALM      30.03S
$$

MSZ003>006-009-014>017-022>024-029>033-037>039-060800-
NORTHEAST MISSISSIPPI

CITY           SKY/WX    TMP DP  RH WIND       PRES   REMARKS
COLUMBUS AFB   CLEAR     46  44  91 W2        29.99F
CORINTH        FAIR      46  45  93 CALM      30.01F
GOLDN TRIANGLE CLEAR     50  43  76 N5        30.00F
STARKVILLE     FAIR      46  45  93 CALM      30.00F
TUPELO         CLEAR     50  42  74 NW3       30.01S
$$

MSZ040-058-060800-
CENTRAL MISSISSIPPI

CITY           SKY/WX    TMP DP  RH WIND       PRES   REMARKS
JACKSON INTL   CLEAR     51  44  77 CALM      30.00S
JACKSON HAWKNS CLEAR     53  43  68 CALM      30.01S
MADISON        FAIR      46  45  93 CALM      30.00F
MERIDIAN KEY   CLEAR     50  44  80 N7        29.99F
MERIDIAN NAS   CLEAR     52  42  69 N6        30.00S
VICKSBURG TVR  CLEAR     56  53  90 N8        30.01F
VICKSBURG VKS  SUNNY     52  50  93 CALM      30.01F
$$

MSZ059>079-060800-
SOUTH MISSISSIPPI

CITY           SKY/WX    TMP DP  RH WIND       PRES   REMARKS
BROOKHAVEN     FAIR     N/A N/A N/A CALM      30.01F
COLUMBIA       FAIR      46  45  93 CALM      30.03F
HATTIESBURG    CLEAR     50  45  83 NW3       29.99F
LAUREL         FAIR      51  43  73 NW3       29.99F
MCCOMB         PTCLDY    52  47  83 CALM      30.00F
NATCHEZ        PTCLDY    54  46  76 CALM      30.01S
PINE BELT      CLEAR     54  39  58 N5        30.00S
$$

MSZ080>082-060800-
COASTAL MISSISSIPPI

CITY           SKY/WX    TMP DP  RH WIND       PRES   REMARKS
BILOXI         PTCLDY    62  44  50 N8        29.97R
PASCAGOULA     CLEAR     58  46  64 N6        29.96S
GULFPORT       PTCLDY    56  45  66 N5        29.97S
$$




USA.gov is the U.S. government's official web portal to all federal, state and local government web resources and services.